EW0408 Weather Reports


Display with metric or nautical units.
time (UTC)temp
F
wind
direction
speed
MPH
gust
MPH
rain 1hr
in
rain 24hr
in
rain mn
in
humidity
%
barometer
mb
20260901114003 78 0 0.0 0.0 0.00 0.03 0.00 94 1016.5
20260901113003 78 0 0.0 0.0 0.00 0.03 0.00 94 1016.3
20260901112024 78 0 0.0 0.0 0.00 0.03 0.00 94 1016.1
20260901111004 78 0 0.0 0.0 0.00 0.03 0.00 94 1016.1
20260901110004 78 0 0.0 0.0 0.00 0.03 0.00 94 1016.1
20260901105003 78 0 0.0 0.0 0.00 0.03 0.00 94 1016.0
20260901104003 78 0 0.0 0.0 0.00 0.03 0.00 94 1015.9
20260901103003 78 0 0.0 0.0 0.00 0.03 0.00 94 1015.9
20260901102024 78 0 0.0 0.0 0.00 0.03 0.00 94 1015.9
20260901101003 78 0 0.0 0.0 0.00 0.03 0.00 94 1015.9
20260901100003 78 0 0.0 0.0 0.00 0.03 0.00 93 1015.8
20260901095003 77 0 0.0 0.0 0.00 0.03 0.00 93 1015.9
20260901094024 77 0 0.0 0.0 0.00 0.03 0.00 93 1015.8
20260901093003 78 0 0.0 0.0 0.00 0.03 0.00 93 1015.6
20260901092003 78 0 0.0 0.0 0.00 0.03 0.00 93 1015.5
20260901091003 78 0 0.0 0.0 0.00 0.03 0.00 93 1015.4
20260901090003 78 0 0.0 0.0 0.00 0.03 0.00 93 1015.5
20260901085003 78 0 0.0 0.0 0.00 0.03 0.00 93 1015.3
20260901084026 78 0 0.0 0.0 0.00 0.03 0.00 92 1015.2
20260901083025 78 50 0.0 1.0 0.00 0.03 0.00 92 1015.3
20260901082005 78 0 0.0 0.0 0.00 0.03 0.00 92 1015.3
20260901081005 78 50 0.0 1.0 0.00 0.03 0.00 92 1015.3
20260901080005 78 0 0.0 0.0 0.00 0.03 0.00 92 1015.3
20260901075005 78 0 0.0 0.0 0.00 0.03 0.00 92 1015.5
20260901074026 78 0 0.0 0.0 0.00 0.03 0.00 92 1015.5
20260901073005 78 50 0.0 1.0 0.00 0.03 0.00 92 1015.6
20260901072005 78 0 0.0 0.0 0.00 0.03 0.00 91 1015.7
20260901071005 78 0 0.0 0.0 0.00 0.03 0.00 92 1015.8
20260901070005 78 0 0.0 0.0 0.00 0.03 0.00 92 1015.9
20260901065005 78 0 0.0 0.0 0.00 0.03 0.00 93 1015.9
20260901064004 77 0 0.0 0.0 0.00 0.03 0.00 92 1015.9
20260901063026 77 0 0.0 0.0 0.00 0.03 0.00 92 1016.1
20260901062004 77 0 0.0 0.0 0.00 0.03 0.00 92 1016.3
20260901061005 77 0 0.0 0.0 0.00 0.03 0.00 92 1016.6
20260901060004 77 0 0.0 0.0 0.00 0.04 0.00 92 1016.7
20260901055005 77 0 0.0 0.0 0.00 0.04 0.00 91 1016.6
20260901054004 77 0 0.0 0.0 0.00 0.04 0.00 91 1016.9
20260901053004 77 0 0.0 0.0 0.00 0.04 0.00 91 1017.3
20260901052005 77 0 0.0 0.0 0.00 0.04 0.00 91 1017.3
20260901051025 77 0 0.0 0.0 0.00 0.04 0.00 91 1017.3
20260901050004 77 0 0.0 0.0 0.00 0.04 0.00 90 1017.3
20260901045026 78 0 0.0 0.0 0.00 0.04 0.00 90 1017.3
20260901044004 78 0 0.0 0.0 0.00 0.04 0.00 90 1017.6
20260901043004 78 0 0.0 0.0 0.00 0.04 0.00 89 1017.6
20260901042004 78 0 0.0 0.0 0.00 0.04 0.00 89 1017.6
20260901041026 78 0 0.0 0.0 0.00 0.05 0.00 89 1017.7
20260901040005 78 0 0.0 0.0 0.00 0.06 0.00 88 1017.7
20260901035005 79 0 0.0 0.0 0.00 0.23 0.06 88 1017.7
20260901034004 79 0 0.0 0.0 0.00 0.29 0.06 88 1017.7
20260901033005 79 0 0.0 0.0 0.00 0.53 0.06 88 1017.8
20260901032004 79 0 0.0 0.0 0.00 0.59 0.06 88 1017.7
20260901031005 79 0 0.0 0.0 0.00 0.61 0.06 88 1017.7
20260901030004 79 0 0.0 0.0 0.00 0.61 0.06 87 1017.7
20260901025004 79 0 0.0 0.0 0.00 0.61 0.06 88 1017.7
20260901024025 79 0 0.0 0.0 0.00 0.61 0.06 89 1017.5
20260901023004 78 0 0.0 0.0 0.00 0.61 0.06 88 1017.6
20260901022005 78 0 0.0 0.0 0.00 0.62 0.06 88 1017.5
20260901021005 79 0 0.0 0.0 0.00 0.62 0.06 87 1017.3
20260901020004 79 0 0.0 0.0 0.00 0.62 0.06 87 1017.4
20260901015004 79 0 0.0 0.0 0.00 0.77 0.06 87 1017.1
20260901014025 80 0 0.0 0.0 0.00 0.97 0.06 86 1017.0
20260901013004 80 0 0.0 0.0 0.00 0.97 0.06 86 1016.8
20260901012025 80 0 0.0 0.0 0.00 0.97 0.06 86 1016.7
20260901011005 80 0 0.0 0.0 0.00 0.97 0.06 86 1016.8
20260901010004 80 0 0.0 0.0 0.00 0.97 0.06 86 1016.7
20260901005004 80 0 0.0 0.0 0.00 0.97 0.06 86 1016.7
20260901004004 80 33 0.0 1.0 0.00 0.97 0.06 86 1016.7
20260901003004 80 11 0.0 1.0 0.00 0.97 0.06 85 1016.7
20260901002004 80 17 2.0 7.0 0.00 0.97 0.06 85 1016.7
20260901001004 80 38 3.0 6.0 0.00 0.97 0.06 86 1016.7
20260901000025 80 31 3.0 5.0 0.00 0.97 0.06 84 1016.7
20260831235004 80 39 3.0 7.0 0.00 0.97 0.06 84 1016.6
20260831234004 81 42 5.0 9.0 0.00 0.97 0.06 84 1016.5
20260831233005 81 43 5.0 8.0 0.00 0.97 0.06 84 1016.5
20260831232004 81 34 4.0 9.0 0.00 0.97 0.06 83 1016.7
20260831231005 81 25 3.0 9.0 0.00 0.97 0.06 84 1016.7
20260831230025 81 23 3.0 6.0 0.00 0.97 0.06 85 1016.6
20260831225004 81 40 5.0 10.0 0.00 0.97 0.06 85 1016.5
20260831224004 81 47 6.0 11.0 0.00 0.97 0.06 84 1016.5
20260831223004 81 49 8.0 11.0 0.00 0.97 0.06 85 1016.4
20260831222004 81 48 7.0 12.0 0.00 0.97 0.06 85 1016.3
20260831221025 80 36 5.0 9.0 0.00 0.97 0.06 86 1016.0
20260831220004 80 34 4.0 9.0 0.00 0.97 0.06 86 1016.1
20260831215004 80 31 5.0 8.0 0.00 0.97 0.06 85 1016.2
20260831214004 80 26 5.0 10.0 0.00 0.97 0.06 85 1016.6
20260831213004 80 22 4.0 11.0 0.00 0.97 0.06 85 1016.5
20260831212004 80 28 6.0 10.0 0.00 0.97 0.06 85 1016.5
20260831211004 80 30 6.0 12.0 0.00 0.97 0.06 85 1016.4
20260831210004 81 31 8.0 12.0 0.00 0.97 0.06 85 1016.6
20260831205025 81 35 7.0 14.0 0.00 0.97 0.06 86 1016.7
20260831204004 81 39 9.0 16.0 0.00 0.97 0.06 85 1016.6
20260831203004 81 46 10.0 17.0 0.00 0.97 0.06 86 1016.5
20260831202004 80 46 10.0 15.0 0.01 0.97 0.06 88 1016.5
20260831201004 80 46 10.0 15.0 0.03 0.97 0.06 87 1016.8
20260831200004 81 49 11.0 17.0 0.03 0.97 0.06 88 1016.6
20260831195025 81 54 11.0 20.0 0.03 0.97 0.06 87 1016.7
20260831194004 81 55 8.0 18.0 0.03 0.97 0.06 85 1016.4
20260831193025 82 0 0.0 0.0 0.03 0.97 0.06 88 1016.2
20260831192004 85 0 0.0 0.0 0.02 0.96 0.05 83 1016.1
20260831191004 88 0 0.0 0.0 0.00 0.94 0.03 75 1016.1
20260831190004 92 0 0.0 0.0 0.00 0.94 0.03 70 1016.1
20260831185025 92 0 0.0 0.0 0.00 0.94 0.03 66 1015.9
20260831184004 91 0 0.0 0.0 0.00 0.94 0.03 64 1016.1
20260831183004 90 0 0.0 0.0 0.00 0.94 0.03 64 1016.2
20260831182004 90 0 0.0 0.0 0.00 0.94 0.03 68 1016.3
20260831181004 90 0 0.0 0.0 0.00 0.94 0.03 68 1016.4
20260831180004 90 0 0.0 0.0 0.00 0.94 0.03 68 1016.6
20260831175004 90 0 0.0 0.0 0.00 0.94 0.03 68 1016.6
20260831174004 90 0 0.0 0.0 0.00 0.94 0.03 70 1016.9
20260831173004 90 0 0.0 0.0 0.00 0.94 0.03 67 1017.2
20260831172025 89 0 0.0 0.0 0.00 0.94 0.03 71 1017.4
20260831171004 89 0 0.0 0.0 0.00 0.94 0.03 70 1017.3
20260831170004 89 0 0.0 0.0 0.00 0.94 0.03 70 1017.4
20260831165025 89 0 0.0 0.0 0.00 0.94 0.03 70 1017.5
20260831164004 89 0 0.0 0.0 0.00 0.94 0.03 73 1017.6
20260831163025 88 0 0.0 0.0 0.00 0.94 0.03 72 1017.7
20260831162004 88 0 0.0 0.0 0.00 0.94 0.03 72 1018.0
20260831161004 88 0 0.0 0.0 0.00 0.94 0.03 74 1018.1
20260831160025 89 0 0.0 0.0 0.00 0.94 0.03 73 1018.2
20260831155004 89 0 0.0 0.0 0.00 0.94 0.03 73 1018.3
20260831154004 87 0 0.0 0.0 0.00 0.94 0.03 76 1018.3
20260831153025 86 0 0.0 0.0 0.00 0.94 0.03 77 1018.3
20260831152004 86 0 0.0 0.0 0.00 0.94 0.03 76 1018.1
20260831151004 86 0 0.0 0.0 0.00 0.94 0.03 77 1018.1
20260831150004 86 0 0.0 0.0 0.00 0.94 0.03 80 1018.3
20260831145004 85 0 0.0 0.0 0.00 0.94 0.03 80 1018.2
20260831144004 84 0 0.0 0.0 0.00 0.94 0.03 81 1018.2
20260831143004 84 0 0.0 0.0 0.00 0.94 0.03 81 1018.2
20260831142005 84 0 0.0 0.0 0.00 0.94 0.03 83 1018.2
20260831141004 83 0 0.0 0.0 0.00 0.94 0.03 83 1018.0
20260831140004 82 0 0.0 0.0 0.00 0.94 0.03 84 1017.9
20260831135025 82 0 0.0 0.0 0.00 0.94 0.03 85 1017.9
20260831134004 82 0 0.0 0.0 0.00 0.94 0.03 85 1017.9
20260831133004 81 0 0.0 0.0 0.00 0.94 0.03 86 1017.9
20260831132004 80 0 0.0 0.0 0.00 0.94 0.03 87 1017.7
20260831131004 80 0 0.0 0.0 0.00 0.94 0.03 89 1017.6
20260831130005 79 0 0.0 0.0 0.00 0.94 0.03 90 1017.5
20260831125004 79 0 0.0 0.0 0.00 0.94 0.03 91 1017.5
20260831124004 78 0 0.0 0.0 0.00 0.94 0.03 92 1017.4
20260831123004 78 0 0.0 0.0 0.00 0.94 0.03 92 1017.5
20260831122004 78 0 0.0 0.0 0.00 0.94 0.03 93 1017.5
20260831121004 77 0 0.0 0.0 0.00 0.94 0.03 93 1017.3
20260831120004 77 0 0.0 0.0 0.00 0.94 0.03 94 1017.3
20260831115004 76 0 0.0 0.0 0.00 0.94 0.03 94 1017.1